DELTA 1 DEB, 26844

Orbit data source: Space-Track

DELTA 1 DEB, 26844 is space debris in SSO originally from a launch on Thu, 12 Jun 1975 UTC launched from the Air Force Western Test Range (AFWTR). Debris objects in space refer to the collection of defunct objects orbiting the Earth. Examples of debris include non-operational satellites, rocket bodies, and fragments generated from explosions, collisions, or faulty payload assembly.

Loading next visibility...
Identifier
26844, 1975-052KY
Orbit
SSO
Country
Flag of USUS
Related business
Manufacturer
Unknown
Mission
Spacecraft
Bus & Motor
Unknown
Mass
Unknown
Launch date (UTC)
1975-06-12 (51 years ago)
Launch vehicle
Unknown
Launch site
Air Force Western Test Range (AFWTR)
Object type
Payload
Rocket body
Debris
Shape & HBR
Unknown shape, 0.1 m
Radar Cross Section
Small (<0.1 m²)

Expand to show TLE details & history
Last TLE update: 16 hours ago

TLE from 16 hours ago
0 DELTA 1 DEB
1 26844U 75052KY  26126.74083208  .00000301  00000-0  44945-3 0  9995
2 26844  99.7576  51.4993 0045468 185.9939 203.6143 13.61579944687314
Epoch: 2026-05-06T17:46Z
TLE epoch observation values (Epoch: 2026-05-06T17:46:47.891Z)
Latitude
28.98091°
Longitude
-85.23468°
Altitude
1,064.341 km
Speed
7.307 km/s
True Right ascension
03h 04m 14s
True Declination
28° 50' 29"
Sunlit
Object was in daylight at epoch
Visualization orbit readout
Latitude
Unknown
Longitude
Unknown
Altitude
Unknown
Speed
Unknown
Apparent Right ascension
Unknown
Apparent Declination
Unknown
Sunlit
N/A
Visualization observer readout
Local Sidereal Time
18:15:41
Azimuth
Unknown
Elevation
Unknown
Doppler factor
Unknown
Orbital elements
Apogee altitude
1,060.915 km
Perigee altitude
993.574 km
Semi-major axis
7,405.382 km
Eccentricity
0.00455
Inclination
99.7576°
RAAN
51.4993°
Arg. of periapsis
185.9939°
True anomaly
203.40667°
Mean anomaly
203.6143°
Eccentric anomaly
203.51038°
Mean motion
3.40582 °/min
Orbital period
105.7 mins
BSTAR
0.00044945
Loading maneuver chart data...
Computing Atmospheric mass density...
Loading historical data...
Loading historical data...
Loading historical data...
Loading historical data...
Loading historical data...
Loading historical data...
Loading historical data...

Documentation

Showing up to 5 results
|